DateTime,F1_A11,F1_S11,BsB_S11,BsG_S11,BsR_S11,BbsB_S11,BbsG_S11,BbsR_S11,BaB_A11,BaG_A11,BaR_A11,T_S11,U_S11,P_S11,T1_A11
2016-02-08T00:00:00Z,0000380,21000600,,,,,,,,,,26.0,00.0,0623.6,34.5
2016-02-08T00:01:00Z,0000380,21000600,,,,,,,,,,26.0,00.0,0623.6,34.5
2016-02-08T00:02:00Z,0000380,21000600,,,,,,,,,,26.0,00.0,0623.6,34.5
2016-02-08T00:03:00Z,0000380,61000600,,,,,,,,,,26.1,00.0,0623.6,34.5
2016-02-08T00:04:00Z,0000380,41000600,0000.89,0000.67,0000.25,0000.41,0000.35,0000.17,0000.04,-000.04,-000.13,26.2,00.0,0624.3,34.5
2016-02-08T00:05:00Z,0000380,01000600,0001.37,0000.20,0000.24,0000.58,0000.24,0000.17,-000.12,-000.12,0000.14,26.3,00.0,0624.4,34.5
2016-02-08T00:06:00Z,0000380,01000600,0000.05,0000.11,0000.07,0000.46,0000.29,-000.08,0000.12,0000.26,-000.09,26.3,00.0,0624.3,34.5
2016-02-08T00:07:00Z,0000380,01000600,0000.37,0000.21,0000.32,-000.63,-000.35,0000.14,-000.02,-000.07,0000.09,26.3,00.0,0624.4,34.5
2016-02-08T00:08:00Z,0000380,01000600,0000.88,0000.31,0000.58,-000.10,-000.13,-000.37,-000.05,0000.08,-000.06,26.3,00.0,0624.4,34.5
2016-02-08T00:09:00Z,0000380,01000600,-000.76,-000.04,-000.12,-000.25,0000.02,-000.15,0000.14,-000.04,0000.14,26.3,00.0,0624.4,34.5
2016-02-08T00:10:00Z,0000380,01000600,0000.62,0000.56,0000.15,0000.36,0000.05,-000.08,0000.13,0000.11,0000.12,26.3,00.0,0624.3,34.5
2016-02-08T00:11:00Z,0000380,01000600,0000.44,0000.18,0000.31,0000.17,-000.34,-000.07,0000.04,-000.01,-000.06,26.3,00.0,0624.3,34.5
2016-02-08T00:12:00Z,0000380,01000600,0000.16,-000.36,0000.42,0000.27,-000.35,-000.30,0000.01,-000.03,0000.13,26.3,00.0,0624.3,34.5
2016-02-08T00:13:00Z,0000380,01000600,0000.47,-000.57,0000.55,-000.34,0000.08,0000.42,-000.00,0000.03,0000.15,26.3,00.0,0624.3,34.5
2016-02-08T00:14:00Z,0000380,01000600,0000.91,0000.88,0000.41,0000.14,0000.19,0000.02,0000.01,-000.04,-000.12,26.3,00.0,0624.3,34.5
2016-02-08T00:15:00Z,0000380,01000600,0000.85,0000.29,0000.65,0000.46,0000.10,0000.02,-000.02,0000.19,-000.01,26.3,00.0,0624.3,34.5
2016-02-08T00:16:00Z,0000380,01000600,0000.40,0000.00,0000.04,-000.15,0000.07,0000.20,-000.13,-000.12,0000.10,26.3,00.0,0624.3,34.5
2016-02-08T00:17:00Z,0000380,01000600,-000.96,0000.31,0000.19,0000.12,-000.17,-000.15,0000.13,0000.18,-000.31,26.3,00.0,0624.2,34.5
2016-02-08T00:18:00Z,0000380,01000600,0000.71,0000.26,0000.46,0000.30,0000.59,0000.17,0000.10,-000.18,0000.30,26.3,00.0,0624.2,34.5
2016-02-08T00:19:00Z,0000380,01000600,-000.31,0000.46,0000.58,0000.14,0000.05,0000.41,-000.01,0000.38,-000.06,26.3,00.0,0624.3,34.5
2016-02-08T00:20:00Z,0000380,01000600,0001.46,0001.21,0000.26,0000.12,0000.34,-000.08,0000.01,-000.22,-000.14,26.3,00.0,0624.3,34.5
2016-02-08T00:21:00Z,0000380,01000600,0000.79,0000.00,0000.36,-000.14,0000.67,-000.22,0000.06,0000.05,0000.15,26.3,00.0,0624.4,34.5
2016-02-08T00:22:00Z,0000380,01000600,0000.95,0000.30,0000.10,0000.03,0000.13,0000.25,-000.01,-000.15,-000.25,26.3,00.0,0624.4,34.5
2016-02-08T00:23:00Z,0000380,01000600,-000.12,0000.61,0000.73,0000.05,-000.12,-000.22,0000.03,0000.11,0000.17,26.3,00.0,0624.4,34.5
2016-02-08T00:24:00Z,0000380,01000600,-000.09,0000.54,0000.27,-000.05,-000.07,-000.12,0000.07,-000.02,-000.01,26.3,00.0,0624.4,34.5
2016-02-08T00:25:00Z,0000380,01000600,-000.22,0000.35,0000.75,-000.17,0000.22,0000.44,-000.01,-000.06,0000.04,26.3,00.0,0624.4,34.5
2016-02-08T00:26:00Z,0000380,01000600,0000.55,0000.06,0000.59,0000.29,0000.24,0000.03,0000.01,0000.11,0000.03,26.3,00.0,0624.4,34.5
2016-02-08T00:27:00Z,0000380,01000600,0000.28,0000.38,0000.23,0000.34,0000.07,0000.00,0000.04,-000.04,0000.12,26.3,00.0,0624.4,34.5
2016-02-08T00:28:00Z,0000380,01000600,0000.44,0000.10,0000.04,-000.30,0000.19,0000.00,0000.00,0000.10,0000.03,26.3,00.0,0624.4,34.5
2016-02-08T00:29:00Z,0000380,01000600,-000.19,-000.26,0000.27,0000.25,-000.62,-000.10,-000.01,0000.04,0000.07,26.3,00.0,0624.4,34.5
2016-02-08T00:30:00Z,0000380,01000600,0000.78,0000.12,0000.57,0000.08,0000.37,-000.02,-000.15,-000.08,0000.10,26.3,00.0,0624.4,34.5
2016-02-08T00:31:00Z,0000380,01000600,0000.97,0000.22,0000.61,0000.34,0000.17,0000.41,0000.26,0000.15,-000.33,26.3,00.0,0624.4,34.5
2016-02-08T00:32:00Z,0000380,01000600,-000.01,-000.10,0000.56,-000.07,0000.25,-000.44,-000.05,0000.10,0000.01,26.3,00.0,0624.4,34.5
2016-02-08T00:33:00Z,0000380,01000600,0000.59,-000.30,0000.47,0000.27,0000.22,-000.10,-000.02,-000.06,0000.01,26.3,00.0,0624.4,34.5
2016-02-08T00:34:00Z,0000380,01000600,-000.60,-000.81,-000.02,0000.08,0000.03,0000.08,-000.11,-000.11,0000.09,26.3,00.0,0624.5,34.5
2016-02-08T00:35:00Z,0000380,01000600,0000.81,-000.04,0000.25,0000.10,0000.02,0000.07,0000.04,0000.15,-000.18,26.3,00.0,0624.5,34.5
2016-02-08T00:36:00Z,0000380,01000600,-000.25,0000.23,0000.10,-000.24,0000.30,0000.10,0000.18,-000.01,0000.37,26.3,00.0,0624.5,34.5
2016-02-08T00:37:00Z,0000380,01000600,0001.42,0000.10,0000.66,-000.15,-000.02,0000.29,0000.04,-000.06,-000.19,26.3,00.0,0624.5,34.5
2016-02-08T00:38:00Z,0000380,01000600,-000.16,0000.70,0000.04,-000.37,0000.39,0000.29,-000.14,0000.01,0000.17,26.3,00.0,0624.5,34.5
2016-02-08T00:39:00Z,0000380,01000600,0000.60,0000.19,0000.19,-000.63,0000.24,0000.03,0000.09,0000.18,-000.02,26.3,00.0,0624.5,34.5
2016-02-08T00:40:00Z,0000380,01000600,0000.32,0000.22,0000.53,-000.25,0000.25,-000.36,0000.08,-000.03,0000.05,26.3,00.0,0624.5,34.5
2016-02-08T00:41:00Z,0000380,01000600,0000.47,-000.29,0000.42,0000.07,0000.20,0000.44,-000.04,-000.02,-000.36,26.3,00.0,0624.5,34.5
2016-02-08T00:42:00Z,0000380,01000600,0000.82,0000.45,0000.00,-000.08,0000.02,-000.08,0000.12,-000.03,0000.49,26.3,00.0,0624.4,34.5
2016-02-08T00:43:00Z,0000380,01000600,0000.60,0000.13,0000.34,-000.19,0000.52,0000.27,-000.14,0000.00,-000.31,26.3,00.0,0624.4,34.5
2016-02-08T00:44:00Z,0000380,01000600,0000.15,-000.31,0000.68,-000.44,0000.02,0000.46,0000.13,0000.00,0000.14,26.3,00.0,0624.4,34.5
2016-02-08T00:45:00Z,0000380,01000600,-000.49,0000.10,0000.00,0000.08,0000.15,0000.30,-000.03,0000.10,-000.12,26.3,00.0,0624.5,34.5
2016-02-08T00:46:00Z,0000380,01000600,0000.34,-000.39,0000.00,-000.27,-000.08,0000.22,-000.01,-000.11,0000.28,26.3,00.0,0624.5,34.5
2016-02-08T00:47:00Z,0000380,01000600,0000.11,-000.70,0000.74,0000.56,0000.12,0000.32,0000.08,0000.10,-000.06,26.3,00.0,0624.5,34.5
2016-02-08T00:48:00Z,0000380,01000600,0000.73,0000.51,0000.46,-000.17,-000.05,0000.03,0000.07,0000.07,-000.00,26.3,00.0,0624.6,34.5
2016-02-08T00:49:00Z,0000380,01000600,0001.01,0000.65,0000.06,0000.42,0000.08,-000.02,-000.07,0000.02,0000.03,26.3,00.0,0624.6,34.5
2016-02-08T00:50:00Z,0000380,01000600,0001.16,0000.80,0000.60,0000.22,0000.49,0000.42,0000.11,-000.10,0000.01,26.3,00.0,0624.6,34.5
2016-02-08T00:51:00Z,0000380,01000600,-000.47,0000.65,0000.47,0000.63,0000.17,0000.42,0000.09,0000.06,0000.12,26.3,00.0,0624.7,34.5
2016-02-08T00:52:00Z,0000380,01000600,0000.89,-000.32,0000.52,-000.10,0000.39,0000.14,-000.12,0000.05,-000.29,26.3,00.0,0624.7,34.5
2016-02-08T00:53:00Z,0000380,01000600,-000.55,-000.11,0000.46,-000.51,0000.13,0000.19,0000.03,0000.10,-000.04,26.3,00.0,0624.7,34.5
2016-02-08T00:54:00Z,0000380,01000600,0000.37,0000.72,0000.16,-000.51,0000.12,-000.07,0000.02,-000.09,0000.32,26.3,00.0,0624.7,34.5
2016-02-08T00:55:00Z,0000380,01000600,0000.24,0000.15,0000.59,-000.22,0000.22,-000.17,0000.13,0000.11,0000.05,26.3,00.0,0624.7,34.5
2016-02-08T00:56:00Z,0000380,01000600,0000.23,-000.57,0000.85,0000.47,0000.02,0000.02,0000.06,-000.05,0000.01,26.3,00.0,0624.7,34.5
2016-02-08T00:57:00Z,0000380,41000600,,,,,,,,,,,,0624.7,34.5
2016-02-08T00:58:00Z,0000380,61000600,,,,,,,,,,26.2,00.0,0623.9,34.5
2016-02-08T00:59:00Z,0000380,21000600,,,,,,,,,,26.2,00.0,0623.9,34.5
2016-02-08T01:00:00Z,0000380,21000600,,,,,,,,,,26.1,00.0,0623.9,34.5
2016-02-08T01:01:00Z,0000380,21000600,,,,,,,,,,26.0,00.0,0624.0,34.5
2016-02-08T01:02:00Z,0000380,21000600,,,,,,,,,,26.0,00.0,0624.0,34.5
2016-02-08T01:03:00Z,0000380,61000600,,,,,,,,,,26.1,00.0,0624.0,34.5
2016-02-08T01:04:00Z,0000380,41000600,-000.75,0000.00,0000.39,0000.30,-000.32,0000.17,-000.08,-000.06,-000.18,26.3,00.0,0624.7,34.5
2016-02-08T01:05:00Z,0000380,01000600,0000.17,0000.39,-000.15,-000.14,0000.20,0000.27,0000.13,-000.02,0000.29,26.3,00.0,0624.8,34.5
2016-02-08T01:06:00Z,0000380,01000600,-000.20,0000.59,0000.27,0000.20,-000.02,0000.32,-000.11,-000.08,-000.08,26.3,00.0,0624.8,34.5
2016-02-08T01:07:00Z,0000380,01000600,0001.50,-000.08,0000.16,0000.98,0000.22,0000.20,0000.16,-000.01,-000.03,26.3,00.0,0624.8,34.5
2016-02-08T01:08:00Z,0000380,01000600,-001.30,-000.25,0000.35,0000.88,0000.22,0000.07,-000.02,0000.09,0000.09,26.3,00.0,0624.8,34.5
2016-02-08T01:09:00Z,0000380,01000600,-000.21,0000.08,0000.48,0000.02,-000.30,0000.39,0000.06,0000.11,0000.14,26.3,00.0,0624.8,34.5
2016-02-08T01:10:00Z,0000380,01000600,0000.37,0000.16,-000.13,-000.02,0000.03,0000.10,-000.04,-000.06,-000.22,26.3,00.0,0624.8,34.5
2016-02-08T01:11:00Z,0000380,01000600,-000.07,-001.05,-000.30,0000.25,-000.34,0000.00,0000.04,0000.03,0000.13,26.3,00.0,0624.8,34.5
2016-02-08T01:12:00Z,0000380,01000600,-000.60,-000.44,0000.50,-000.07,-000.19,-000.10,0000.16,0000.14,-000.00,26.3,00.0,0624.8,34.5
2016-02-08T01:13:00Z,0000380,01000600,-002.20,-000.04,-000.15,0000.00,0000.12,0000.03,0000.03,0000.14,0000.13,26.3,00.0,0624.8,34.5
2016-02-08T01:14:00Z,0000380,01000600,-001.15,0000.46,-000.02,0000.88,-000.12,0000.05,0000.04,-000.15,-000.11,26.3,00.0,0624.8,34.5
2016-02-08T01:15:00Z,0000380,01000600,0000.04,0000.61,0000.42,0000.05,0000.15,0000.17,-000.14,-000.06,-000.01,26.3,00.0,0624.8,34.5
2016-02-08T01:16:00Z,0000380,01000600,0000.13,0000.30,0000.02,0000.20,-000.17,0000.02,0000.02,0000.16,-000.06,26.3,00.0,0624.8,34.5
2016-02-08T01:17:00Z,0000380,01000600,-000.61,-000.72,0000.77,0000.63,0000.08,0000.14,0000.09,-000.05,-000.02,26.3,00.0,0624.9,34.5
2016-02-08T01:18:00Z,0000380,01000600,-000.62,0000.41,0000.74,-000.32,0000.12,0000.15,0000.02,-000.03,0000.13,26.3,00.0,0624.9,34.5
2016-02-08T01:19:00Z,0000380,01000600,-000.20,0000.10,0000.18,-000.08,0000.25,-000.05,-000.07,0000.18,-000.08,26.3,00.0,0625.0,34.5
2016-02-08T01:20:00Z,0000380,01000600,-001.38,-000.42,0000.09,-000.12,-000.15,-000.05,0000.12,-000.12,0000.02,26.3,00.0,0624.9,34.5
2016-02-08T01:21:00Z,0000380,01000600,-000.60,0000.00,0000.43,0000.19,0000.02,0000.17,-000.02,0000.07,-000.14,26.3,00.0,0624.9,34.5
2016-02-08T01:22:00Z,0000380,01000600,-002.62,0000.22,0000.78,0000.24,0000.42,0000.15,0000.04,-000.10,0000.31,26.3,00.0,0625.0,34.5
2016-02-08T01:23:00Z,0000380,01000600,-000.55,0000.47,0000.70,-000.37,-000.05,0000.12,0000.09,-000.02,-000.45,26.3,00.0,0625.0,34.5
2016-02-08T01:24:00Z,0000380,01000600,-000.78,-000.32,0000.60,-000.36,-000.12,0000.27,0000.03,0000.21,0000.02,26.3,00.0,0624.9,34.5
2016-02-08T01:25:00Z,0000380,01000600,-000.37,-000.21,0000.28,-000.05,-000.12,-000.03,0000.04,-000.15,0000.30,26.3,00.0,0625.0,34.5
2016-02-08T01:26:00Z,0000380,01000600,-000.93,-000.23,0000.35,0000.12,-000.20,0000.34,0000.17,0000.24,0000.06,26.3,00.0,0625.0,34.5
2016-02-08T01:27:00Z,0000380,01000600,-000.82,-000.21,0000.15,0000.47,0000.03,0000.19,0000.04,-000.05,-000.10,26.3,00.0,0624.9,34.5
2016-02-08T01:28:00Z,0000380,01000600,-000.49,-000.84,0000.43,0000.07,-000.22,0000.10,-000.17,-000.08,0000.10,26.3,00.0,0624.9,34.5
2016-02-08T01:29:00Z,0000380,01000600,-000.78,0000.13,0000.22,-000.63,0000.34,0000.15,-000.03,0000.00,-000.28,26.3,00.0,0624.9,34.5
2016-02-08T01:30:00Z,0000380,01000600,-000.27,0000.34,0000.13,0000.29,-000.27,0000.03,0000.12,-000.02,0000.04,26.3,00.0,0624.9,34.5
2016-02-08T01:31:00Z,0000380,01000600,0000.19,-000.78,0000.04,-000.20,0000.02,-000.14,0000.01,0000.14,0000.16,26.3,00.0,0624.8,34.5
2016-02-08T01:32:00Z,0000380,01000600,-000.56,-000.23,-000.32,0000.36,-000.25,-000.05,0000.05,-000.03,0000.13,26.3,00.0,0624.8,34.5
2016-02-08T01:33:00Z,0000380,01000600,-000.80,0000.17,-000.15,0000.59,-000.13,0000.37,-000.04,-000.01,-000.05,26.3,00.0,0624.8,34.5
2016-02-08T01:34:00Z,0000380,01000600,-000.74,-000.93,0000.11,0000.79,-000.05,-000.05,0000.06,0000.19,0000.11,26.3,00.0,0624.7,34.5
2016-02-08T01:35:00Z,0000380,01000600,0001.28,-000.10,0000.45,0000.30,-000.29,0000.29,0000.18,-000.05,-000.13,26.3,00.0,0624.7,34.5
2016-02-08T01:36:00Z,0000380,01000600,0000.12,-000.48,-000.04,0000.05,-000.03,0000.07,-000.04,-000.09,-000.02,26.3,00.0,0624.7,34.5
2016-02-08T01:37:00Z,0000380,01000600,0001.05,0000.02,-000.30,-000.20,-000.25,-000.25,0000.09,0000.24,0000.24,26.3,00.0,0624.6,34.5
2016-02-08T01:38:00Z,0000380,01000600,0000.07,-000.65,0000.29,-000.05,-000.07,0000.10,-000.12,-000.12,0000.08,26.3,00.0,0624.6,34.5
2016-02-08T01:39:00Z,0000380,01000600,-000.76,0000.10,0000.49,-000.29,-000.35,0000.10,0000.02,0000.16,-000.11,26.3,00.0,0624.6,34.5
2016-02-08T01:40:00Z,0000380,01000600,-000.72,-000.50,0000.00,0000.17,-000.47,0000.12,0000.15,-000.23,0000.00,26.3,00.0,0624.7,34.5
2016-02-08T01:41:00Z,0000380,01000600,-000.60,-000.02,0000.09,-000.07,0000.08,0000.24,-000.03,0000.23,0000.11,26.3,00.0,0624.7,34.5
2016-02-08T01:42:00Z,0000380,01000600,-000.23,-000.44,-000.04,-000.25,-000.02,0000.42,0000.15,-000.11,0000.03,26.3,00.0,0624.7,34.5
2016-02-08T01:43:00Z,0000380,01000600,-000.14,0000.11,-000.35,-000.08,0000.56,0000.05,-000.13,0000.06,-000.08,26.3,00.0,0624.7,34.5
2016-02-08T01:44:00Z,0000380,01000600,-001.05,-000.13,0000.35,0000.51,-000.19,0000.47,0000.05,0000.04,0000.15,26.3,00.0,0624.8,34.5
2016-02-08T01:45:00Z,0000380,01000600,-000.80,-000.02,-000.11,0000.41,0000.30,0000.03,0000.07,0000.10,-000.26,26.3,00.0,0624.8,34.5
2016-02-08T01:46:00Z,0000380,01000600,-000.17,0000.19,-000.02,0000.27,-000.07,0000.17,-000.10,-000.10,0000.30,26.2,00.0,0624.8,34.5
2016-02-08T01:47:00Z,0000380,01000600,-000.02,-000.93,0000.30,-000.15,-000.40,0000.32,-000.06,-000.02,-000.23,26.3,00.0,0624.8,34.5
2016-02-08T01:48:00Z,0000380,01000600,-000.10,-000.57,0000.09,0000.20,0000.02,-000.17,0000.10,0000.20,0000.14,26.3,00.0,0624.8,34.5
2016-02-08T01:49:00Z,0000380,01000600,0000.04,-000.48,0000.07,-000.32,0000.05,0000.10,-000.02,-000.04,-000.08,26.2,00.0,0624.9,34.5
2016-02-08T01:50:00Z,0000380,01000600,-000.31,-000.11,-000.11,-000.12,-000.07,-000.02,0000.03,0000.03,0000.02,26.2,00.0,0624.9,34.5
2016-02-08T01:51:00Z,0000380,01000600,-000.27,-001.11,0000.58,0000.34,0000.03,0000.34,0000.11,0000.16,-000.03,26.2,00.0,0625.0,34.5
2016-02-08T01:52:00Z,0000380,01000600,0000.16,-000.51,0000.35,0000.14,-000.12,0000.32,-000.06,-000.02,0000.14,26.2,00.0,0625.0,34.5
2016-02-08T01:53:00Z,0000380,01000600,0000.06,0000.25,0000.17,-000.27,-000.17,-000.03,0000.05,-000.13,-000.09,26.2,00.0,0625.1,34.5
2016-02-08T01:54:00Z,0000380,01000600,-000.10,-000.29,0000.17,-000.17,0000.17,-000.08,0000.12,0000.09,0000.09,26.2,00.0,0625.1,34.5
2016-02-08T01:55:00Z,0000380,01000600,-000.95,-000.32,0000.20,-000.10,-000.03,0000.25,-000.01,0000.06,0000.13,26.2,00.0,0625.1,34.5
2016-02-08T01:56:00Z,0000380,01000600,-000.23,-000.21,0000.47,0000.08,0000.13,0000.49,0000.07,0000.03,-000.23,26.2,00.0,0625.1,34.5
2016-02-08T01:57:00Z,0000380,41000600,,,,,,,,,,,,0625.1,34.5
2016-02-08T01:58:00Z,0000380,61000600,,,,,,,,,,26.0,00.0,0624.4,34.5
2016-02-08T01:59:00Z,0000380,21000600,,,,,,,,,,26.0,00.0,0624.4,34.5
2016-02-08T02:00:00Z,0000380,21000600,,,,,,,,,,26.0,00.0,0624.4,34.4
2016-02-08T02:01:00Z,0000380,21000600,,,,,,,,,,26.0,00.0,0624.4,34.4
2016-02-08T02:02:00Z,0000380,21000600,,,,,,,,,,26.0,00.0,0624.4,34.4
2016-02-08T02:03:00Z,0000380,61000600,,,,,,,,,,26.0,00.0,0624.4,34.4
2016-02-08T02:04:00Z,0000380,41000600,-001.30,-000.04,0000.45,-000.54,0000.45,0000.12,0000.19,0000.06,0000.23,26.1,00.0,0625.2,34.4
2016-02-08T02:05:00Z,0000380,01000600,-000.52,-000.53,0000.58,0000.35,0000.13,-000.19,-000.07,-000.05,-000.23,26.1,00.0,0625.3,34.4
2016-02-08T02:06:00Z,0000380,01000600,-000.39,0000.00,-000.02,-000.52,0000.34,-000.34,0000.12,0000.14,0000.27,26.1,00.0,0625.3,34.4
2016-02-08T02:07:00Z,0000380,01000600,-000.60,0000.32,-000.07,-000.29,-000.08,-000.19,-000.12,0000.03,-000.03,26.1,00.0,0625.3,34.4
2016-02-08T02:08:00Z,0000380,01000600,-001.38,-000.34,0000.28,0000.20,0000.49,-000.10,0000.16,-000.03,0000.08,26.1,00.0,0625.4,34.4
2016-02-08T02:09:00Z,0000380,01000600,0000.25,-000.40,0000.07,-000.07,0000.07,-000.41,0000.12,0000.11,-000.15,26.1,00.0,0625.3,34.4
2016-02-08T02:10:00Z,0000380,01000600,-000.33,0000.34,-000.48,0000.10,0000.08,-000.15,-000.01,0000.02,0000.05,26.2,00.0,0625.3,34.4
2016-02-08T02:11:00Z,0000380,01000600,-000.49,-000.25,0000.34,0000.12,-000.17,0000.39,0000.12,0000.05,0000.13,26.2,00.0,0625.3,34.4
2016-02-08T02:12:00Z,0000380,01000600,-000.23,0000.56,0000.69,-000.05,0000.18,0000.05,-000.11,-000.18,0000.01,26.2,00.0,0625.3,34.4
2016-02-08T02:13:00Z,0000380,01000600,0000.24,0000.34,0000.02,-000.08,0000.32,-000.02,0000.10,0000.16,-000.05,26.2,00.0,0625.3,34.4
2016-02-08T02:14:00Z,0000380,01000600,0000.37,-000.29,0000.17,0000.03,0000.03,-000.07,0000.07,0000.07,0000.08,26.2,00.0,0625.3,34.4
2016-02-08T02:15:00Z,0000380,01000600,-000.44,0000.62,0000.02,0000.20,0000.25,-000.20,0000.02,0000.02,-000.01,26.2,00.0,0625.2,34.5
2016-02-08T02:16:00Z,0000380,01000600,-000.32,0000.42,0000.79,0000.12,0000.00,0000.00,-000.10,-000.10,-000.08,26.2,00.0,0625.2,34.5
2016-02-08T02:17:00Z,0000380,01000600,-000.40,0000.32,0000.06,-000.14,0000.10,0000.22,0000.19,0000.11,0000.13,26.2,00.0,0625.2,34.5
2016-02-08T02:18:00Z,0000380,01000600,-000.10,0000.10,0000.00,-000.42,0000.47,-000.05,0000.02,0000.05,-000.01,26.2,00.0,0625.3,34.5
2016-02-08T02:19:00Z,0000380,01000600,-000.45,0000.38,-000.03,-000.32,0000.02,-000.57,-000.06,0000.01,-000.02,26.2,00.0,0625.3,34.5
2016-02-08T02:20:00Z,0000380,01000600,-000.33,0000.00,-000.32,0000.25,0000.10,-000.17,-000.01,0000.01,0000.05,26.2,00.0,0625.3,34.5
2016-02-08T02:21:00Z,0000380,01000600,-000.60,0000.40,-000.26,-000.32,-000.27,0000.00,0000.07,0000.08,0000.18,26.2,00.0,0625.4,34.5
2016-02-08T02:22:00Z,0000380,01000600,-000.16,0000.19,0000.07,0000.05,0000.08,-000.10,0000.08,-000.00,-000.09,26.2,00.0,0625.4,34.5
2016-02-08T02:23:00Z,0000380,01000600,0000.00,0000.23,-000.32,-000.20,0000.42,-000.24,-000.01,0000.10,0000.04,26.2,00.0,0625.5,34.5
2016-02-08T02:24:00Z,0000380,01000600,0000.51,0000.95,0000.02,0000.00,-000.17,0000.07,0000.03,-000.08,0000.26,26.3,00.0,0625.5,34.5
2016-02-08T02:25:00Z,0000380,01000600,0000.30,-000.83,-000.71,0000.15,0000.12,-000.52,0000.02,0000.21,-000.09,26.3,00.0,0625.5,34.5
2016-02-08T02:26:00Z,0000380,01000600,-000.39,0000.70,-000.13,0000.17,0000.15,-000.29,0000.07,0000.04,-000.03,26.3,00.0,0625.6,34.5
2016-02-08T02:27:00Z,0000380,01000600,0000.39,0000.19,-000.32,-000.78,-000.25,0000.52,0000.02,-000.13,-000.04,26.3,00.0,0625.6,34.5
2016-02-08T02:28:00Z,0000380,01000600,-000.49,0000.30,-000.09,0000.68,-000.12,-000.25,-000.01,0000.01,0000.02,26.3,00.0,0625.6,34.5
2016-02-08T02:29:00Z,0000380,01000600,-000.84,-000.06,0000.26,0000.10,-000.10,0000.14,0000.14,0000.03,-000.04,26.3,00.0,0625.6,34.5
2016-02-08T02:30:00Z,0000380,01000600,0000.10,-000.10,-000.34,-000.44,0000.59,0000.07,-000.07,0000.10,0000.09,26.3,00.0,0625.5,34.5
2016-02-08T02:31:00Z,0000380,01000600,0000.25,0000.38,-000.04,-000.10,0000.29,0000.07,0000.20,0000.06,0000.08,26.3,00.0,0625.5,34.5
2016-02-08T02:32:00Z,0000380,01000600,-000.64,-000.17,0000.09,-000.14,-000.03,-000.30,-000.18,-000.00,-000.08,26.3,00.0,0625.5,34.5
2016-02-08T02:33:00Z,0000380,01010600,-000.54,-000.34,-000.26,-000.10,-000.35,-000.14,-000.00,0000.01,-000.16,26.3,00.0,0625.6,34.5
2016-02-08T02:34:00Z,0000380,01000600,-001.09,-000.67,-000.13,0000.05,0000.17,-000.27,0000.07,-000.09,0000.33,26.2,00.0,0625.6,34.5
2016-02-08T02:35:00Z,0000380,01000600,-000.49,0000.53,-000.13,0000.15,0000.05,0000.12,0000.12,0000.16,-000.15,26.3,00.0,0625.6,34.5
2016-02-08T02:36:00Z,0000380,01000600,-000.82,0000.59,0000.22,0000.51,-000.47,-000.17,0000.08,0000.12,0000.14,26.3,00.0,0625.6,34.5
2016-02-08T02:37:00Z,0000380,01000600,-000.45,-000.18,0000.55,-000.05,0000.27,0000.14,-000.12,-000.07,-000.19,26.2,00.0,0625.6,34.5
2016-02-08T02:38:00Z,0000380,01000600,-001.17,-000.25,0000.22,-000.24,-000.15,-000.03,0000.13,0000.01,0000.47,26.2,00.0,0625.6,34.5
2016-02-08T02:39:00Z,0000380,01000600,-001.52,0000.66,0000.20,-000.54,0000.03,-000.19,0000.03,0000.00,-000.30,26.2,00.0,0625.6,34.5
2016-02-08T02:40:00Z,0000380,01000600,-000.84,-000.43,-000.29,-000.10,0000.37,0000.03,-000.01,0000.04,0000.07,26.2,00.0,0625.6,34.5
2016-02-08T02:41:00Z,0000380,01000600,-001.42,0000.48,-000.26,-000.29,-000.05,-000.14,0000.00,0000.10,-000.02,26.2,00.0,0625.7,34.5
2016-02-08T02:42:00Z,0000380,01000600,0000.23,0000.36,-000.04,0000.19,0000.42,-000.20,0000.14,-000.13,-000.16,26.2,00.0,0625.7,34.5
2016-02-08T02:43:00Z,0000380,01000600,0001.07,0000.15,-000.04,0000.25,0000.30,-000.46,-000.06,0000.00,0000.02,26.2,00.0,0625.7,34.5
2016-02-08T02:44:00Z,0000380,01000600,-000.39,0000.51,0000.07,-000.15,-000.02,0000.12,0000.08,0000.13,0000.03,26.2,00.0,0625.7,34.5
2016-02-08T02:45:00Z,0000380,01000600,0000.17,0000.21,-000.09,-000.17,-000.13,-000.07,0000.00,-000.03,0000.09,26.2,00.0,0625.7,34.4
2016-02-08T02:46:00Z,0000380,01000600,-000.01,0000.36,0000.08,0000.52,-000.10,0000.08,-000.03,-000.06,0000.09,26.2,00.0,0625.8,34.4
2016-02-08T02:47:00Z,0000380,01000600,-000.31,-000.20,0000.35,0000.47,0000.12,0000.19,0000.00,-000.04,0000.07,26.2,00.0,0625.8,34.4
2016-02-08T02:48:00Z,0000380,01000600,-000.02,0000.09,0000.02,0000.10,0000.12,-000.14,-000.03,0000.15,-000.03,26.2,00.0,0625.8,34.4
2016-02-08T02:49:00Z,0000380,01000600,-000.25,0000.02,0000.28,-000.30,0000.17,0000.02,0000.27,0000.10,0000.07,26.2,00.0,0625.8,34.4
2016-02-08T02:50:00Z,0000380,01000600,0000.18,0000.75,-000.12,0000.40,-000.18,-000.05,-000.16,-000.04,-000.17,26.2,00.0,0625.8,34.4
2016-02-08T02:51:00Z,0000380,01000600,-000.24,-000.10,0000.56,0000.27,0000.34,0000.05,0000.13,-000.02,0000.04,26.2,00.0,0625.8,34.4
2016-02-08T02:52:00Z,0000380,01000600,0000.57,-000.22,0000.06,0000.49,0000.17,-000.24,0000.04,-000.00,0000.11,26.1,00.0,0625.8,34.4
2016-02-08T02:53:00Z,0000380,01000600,-001.01,0000.33,-000.04,-000.10,-000.03,0000.07,0000.05,0000.23,-000.01,26.1,00.0,0625.8,34.4
2016-02-08T02:54:00Z,0000380,01000600,-000.62,-000.35,0000.25,-000.29,-000.20,0000.05,-000.09,-000.17,0000.09,26.2,00.0,0625.8,34.4
2016-02-08T02:55:00Z,0000380,01000600,-001.03,-000.46,0000.07,-000.12,-000.22,-000.03,0000.16,0000.14,-000.06,26.1,00.0,0625.7,34.4
2016-02-08T02:56:00Z,0000380,01000600,-000.89,-000.84,0000.15,0000.17,-000.10,0000.00,0000.02,-000.11,0000.18,26.1,00.0,0625.7,34.4
2016-02-08T02:57:00Z,0000380,41000600,,,,,,,,,,,,0625.6,34.4
2016-02-08T02:58:00Z,0000380,61000600,,,,,,,,,,26.0,00.0,0624.9,34.4
2016-02-08T02:59:00Z,0000380,21000600,,,,,,,,,,26.0,00.0,0624.9,34.4
2016-02-08T03:00:00Z,0000380,21000600,,,,,,,,,,26.0,00.0,0624.9,34.4
2016-02-08T03:01:00Z,0000380,21000600,,,,,,,,,,26.0,00.0,0624.9,34.4
2016-02-08T03:02:00Z,0000380,21000600,,,,,,,,,,26.0,00.0,0624.9,34.4
2016-02-08T03:03:00Z,0000380,61000600,,,,,,,,,,26.0,00.0,0624.9,34.4
2016-02-08T03:04:00Z,0000380,41000600,0000.50,-000.42,0000.07,0000.44,0000.10,-000.37,0000.09,0000.05,0000.12,26.2,00.0,0625.5,34.4
2016-02-08T03:05:00Z,0000380,01000600,0000.50,0000.35,0000.00,0000.57,0000.42,-000.20,-000.08,0000.07,0000.10,26.2,00.0,0625.6,34.4
2016-02-08T03:06:00Z,0000380,01000600,0000.70,0000.20,0000.12,0000.14,-000.02,-000.20,0000.04,-000.04,0000.03,26.2,00.0,0625.6,34.4
2016-02-08T03:07:00Z,0000380,01000600,0000.56,-000.22,-000.05,-000.32,0000.66,0000.22,-000.08,-000.07,0000.03,26.2,00.0,0625.6,34.4
2016-02-08T03:08:00Z,0000380,01000600,-000.12,0000.09,0000.10,-000.49,-000.07,-000.47,0000.08,0000.25,-000.08,26.2,00.0,0625.6,34.4
2016-02-08T03:09:00Z,0000380,01000600,-001.05,-000.17,-000.04,-000.10,-000.17,-000.27,-000.02,-000.15,-000.09,26.2,00.0,0625.6,34.4
2016-02-08T03:10:00Z,0000380,01000600,-000.50,0000.00,0000.13,0000.02,0000.15,-000.37,0000.15,0000.12,0000.05,26.2,00.0,0625.6,34.4
2016-02-08T03:11:00Z,0000380,01000600,-000.43,-000.57,-000.35,0000.25,-000.22,-000.10,-000.02,0000.05,-000.18,26.2,00.0,0625.5,34.4
2016-02-08T03:12:00Z,0000380,01000600,-000.80,0000.10,0000.41,0000.20,-000.44,0000.15,-000.05,0000.02,0000.21,26.2,00.0,0625.5,34.4